Three Rivers, MI

7:58 PM EST on January 23, 2018 (GMT -0500)
Three Rivers Municipal-Haines

Weather History for KHAI - August, 2012

Change the Weather History Date:

Monday, August 13, 2012

  Actual Average Record
Temperature  
Mean Temperature 64 °F -  
Max Temperature 67 °F 81 °F 93 °F (1988)
Min Temperature 60 °F 57 °F 44 °F (1954)
Degree Days  
Heating Degree Days 2    
Growing Degree Days 14 (Base 50)    
Moisture  
Dew Point 59 °F    
Average Humidity 86    
Maximum Humidity 94    
Minimum Humidity 75    
Precipitation  
Precipitation 0.00 in - - ()
Sea Level Pressure  
Sea Level Pressure 30.00 in    
Wind  
Wind Speed 1 mph (NNE)    
Max Wind Speed 6 mph    
Max Gust Speed -    
Visibility 8 miles    
Events Rain    
Averages and records for this station are not official NWS values.
T = Trace of Precipitation, MM = Missing Value Source: NWS Daily Summary

Daily Weather History Graph

Daily Weather History Graph

Search for Another Location

Airport or City:

Trip Planner

Search our weather history database for the weather conditions in past years. The results will help you decide how hot, cold, wet, or windy it might be!

Date:

Astronomy

Aug. 13, 2012 Rise Set
Actual Time 6:48 AM EDT 8:44 PM EDT
Civil Twilight 6:18 AM EDT 9:14 PM EDT
Nautical Twilight 5:41 AM EDT 9:51 PM EDT
Astronomical Twilight 5:01 AM EDT 10:31 PM EDT
Moon 2:49 AM EDT (8/13) 5:57 PM EDT (8/13)
Length of Visible Light 14h 56m
Length of Day
13h 56m
Waning Crescent, 16% of the Moon is Illuminated
Aug 13
Waning Crescent
Aug 17
New
Aug 24
First Quarter
Aug 31
Full
Sep 8
Last Quarter

Hourly Weather History & Observations

Time (EDT) Temp. Dew Point Humidity Pressure Visibility Wind Dir Wind Speed Gust Speed Precip Events Conditions
12:15 AM 64.4 °F 60.1 °F 86% 30.02 in 10.0 mi Calm Calm - N/A   Clear
12:35 AM 64.8 °F 60.1 °F 85% 30.02 in 10.0 mi Calm Calm - N/A   Clear
12:55 AM 63.7 °F 59.9 °F 87% 30.02 in 10.0 mi Calm Calm - N/A   Scattered Clouds
1:15 AM 63.1 °F 60.3 °F 90% 30.02 in 10.0 mi Calm Calm - N/A   Scattered Clouds
1:34 AM 63.9 °F 60.1 °F 87% 30.02 in 10.0 mi Calm Calm - N/A   Scattered Clouds
1:55 AM 64.0 °F 59.4 °F 85% 30.01 in 10.0 mi Calm Calm - N/A   Overcast
2:15 AM 63.7 °F 59.9 °F 87% 30.00 in 10.0 mi Calm Calm - N/A   Overcast
2:34 AM 63.5 °F 59.9 °F 88% 30.01 in 10.0 mi Calm Calm - N/A   Overcast
2:55 AM 63.0 °F 59.5 °F 89% 30.01 in 10.0 mi Calm Calm - N/A   Overcast
3:15 AM 63.0 °F 59.5 °F 89% 30.01 in 10.0 mi Calm Calm - N/A   Mostly Cloudy
3:34 AM 63.1 °F 59.5 °F 88% 30.01 in 10.0 mi Calm Calm - N/A   Mostly Cloudy
3:55 AM 63.3 °F 59.5 °F 87% 30.01 in 10.0 mi Calm Calm - N/A   Mostly Cloudy
4:15 AM 63.5 °F 59.2 °F 86% 30.01 in 10.0 mi Calm Calm - N/A   Mostly Cloudy
4:35 AM 63.3 °F 58.6 °F 85% 30.01 in 10.0 mi Calm Calm - N/A   Overcast
4:55 AM 62.8 °F 59.4 °F 89% 30.01 in 10.0 mi Calm Calm - N/A   Overcast
5:14 AM 62.6 °F 59.0 °F 88% 30.01 in 10.0 mi Calm Calm - N/A   Mostly Cloudy
5:35 AM 62.1 °F 58.5 °F 88% 30.00 in 10.0 mi Calm Calm - N/A   Scattered Clouds
5:55 AM 62.6 °F 58.3 °F 86% 30.01 in 10.0 mi Calm Calm - N/A   Scattered Clouds
6:14 AM 62.4 °F 58.5 °F 87% 30.00 in 10.0 mi Calm Calm - N/A   Clear
6:35 AM 62.2 °F 58.3 °F 87% 30.01 in 10.0 mi Calm Calm - N/A   Scattered Clouds
6:55 AM 62.1 °F 58.1 °F 87% 30.01 in 10.0 mi Calm Calm - N/A   Overcast
7:14 AM 63.1 °F 59.2 °F 87% 30.02 in 10.0 mi Calm Calm - N/A   Mostly Cloudy
7:35 AM 63.3 °F 58.3 °F 84% 30.02 in 10.0 mi Calm Calm - N/A   Scattered Clouds
7:55 AM 63.5 °F 58.6 °F 84% 30.02 in 10.0 mi Calm Calm - N/A Rain Light Rain
8:14 AM 63.9 °F 58.3 °F 82% 30.02 in 10.0 mi WSW 5.8 mph - N/A Rain Light Rain
8:35 AM 63.5 °F 58.8 °F 85% 30.02 in 10.0 mi West 4.6 mph - N/A Rain Light Rain
8:55 AM 63.5 °F 59.2 °F 86% 30.02 in 10.0 mi West 4.6 mph - N/A   Drizzle
9:15 AM 63.3 °F 59.2 °F 86% 30.02 in 10.0 mi West 4.6 mph - N/A Rain Light Rain
9:35 AM 63.5 °F 59.4 °F 86% 30.02 in 10.0 mi West 3.5 mph - N/A Rain Light Rain
9:55 AM 64.2 °F 60.1 °F 86% 30.02 in 10.0 mi WNW 3.5 mph - N/A Rain Light Rain
10:15 AM 64.8 °F 60.1 °F 85% 30.02 in 10.0 mi WNW 4.6 mph - N/A Rain Light Rain
10:35 AM 65.5 °F 59.9 °F 82% 30.02 in 10.0 mi Calm Calm - N/A   Overcast
10:55 AM 65.7 °F 59.5 °F 81% 30.01 in 10.0 mi Calm Calm - N/A Rain Light Rain
11:15 AM 66.0 °F 60.4 °F 82% 30.01 in 10.0 mi Calm Calm - N/A   Overcast
11:35 AM 66.6 °F 60.4 °F 81% 30.00 in 10.0 mi Calm Calm - N/A   Overcast
11:55 AM 66.6 °F 60.4 °F 81% 30.01 in 10.0 mi Calm Calm - N/A Rain Light Rain
12:14 PM 66.4 °F 59.5 °F 79% 30.01 in 10.0 mi Calm Calm - N/A Rain Light Rain
12:35 PM 66.9 °F 60.6 °F 80% 30.01 in 7.0 mi Calm Calm - N/A Rain Light Rain
12:55 PM 66.4 °F 60.4 °F 81% 30.00 in 10.0 mi North 3.5 mph - N/A   Overcast
1:14 PM 66.4 °F 61.0 °F 83% 30.00 in 10.0 mi North 4.6 mph - N/A   Overcast
1:35 PM 66.2 °F 59.9 °F 80% 30.00 in 10.0 mi Calm Calm - N/A   Overcast
1:55 PM 66.2 °F 59.2 °F 78% 30.00 in 10.0 mi Calm Calm - N/A   Overcast
2:14 PM 66.6 °F 58.5 °F 75% 30.00 in 10.0 mi Calm Calm - N/A   Overcast
2:35 PM 66.9 °F 59.4 °F 77% 29.98 in 10.0 mi NE 5.8 mph - N/A   Overcast
2:55 PM 67.1 °F 59.5 °F 77% 29.98 in 10.0 mi ENE 5.8 mph - N/A   Overcast
3:15 PM 66.6 °F 59.0 °F 77% 29.98 in 10.0 mi East 5.8 mph - N/A Rain Light Rain
3:35 PM 65.5 °F 59.4 °F 81% 29.98 in 7.0 mi East 4.6 mph - N/A Rain Light Rain
3:54 PM 65.1 °F 59.7 °F 83% 29.98 in 10.0 mi East 3.5 mph - N/A Rain Light Rain
4:15 PM 64.8 °F 59.9 °F 84% 29.98 in 10.0 mi East 4.6 mph - N/A   Overcast
4:35 PM 64.4 °F 59.5 °F 84% 29.98 in 10.0 mi Calm Calm - N/A   Overcast
4:54 PM 64.4 °F 59.5 °F 84% 29.98 in 10.0 mi Calm Calm - N/A Rain Light Rain
5:15 PM 64.0 °F 59.2 °F 84% 29.98 in 7.0 mi Calm Calm - N/A Rain Rain
5:35 PM 64.0 °F 59.4 °F 85% 29.98 in 3.0 mi Calm Calm - N/A Rain Rain
5:54 PM 63.5 °F 58.1 °F 83% 29.98 in 5.0 mi Calm Calm - N/A   Drizzle
6:15 PM 62.6 °F 58.8 °F 87% 29.97 in 7.0 mi Calm Calm - N/A Rain Rain
6:34 PM 62.2 °F 59.0 °F 89% 29.97 in 7.0 mi Calm Calm - N/A Rain Rain
6:55 PM 62.1 °F 59.0 °F 90% 29.97 in 10.0 mi Calm Calm - N/A Rain Light Rain
7:14 PM 62.4 °F 59.4 °F 90% 29.97 in 7.0 mi Calm Calm - N/A Rain Rain
7:35 PM 62.4 °F 59.4 °F 90% 29.96 in 7.0 mi ENE 3.5 mph - N/A Rain Light Rain
7:55 PM 62.1 °F 59.5 °F 91% 29.96 in 7.0 mi Calm Calm - N/A   Overcast
8:14 PM 61.9 °F 59.2 °F 91% 29.96 in 5.0 mi East 4.6 mph - N/A Rain Light Rain
8:35 PM 61.9 °F 59.2 °F 91% 29.96 in 7.0 mi Calm Calm - N/A   Overcast
8:55 PM 62.4 °F 59.2 °F 89% 29.96 in 7.0 mi Calm Calm - N/A Rain Light Rain
9:15 PM 62.1 °F 59.2 °F 90% 29.97 in 4.0 mi Calm Calm - N/A Rain Rain
9:35 PM 61.2 °F 59.0 °F 93% 29.97 in 3.0 mi Calm Calm - N/A Rain Heavy Rain
9:55 PM 61.0 °F 58.8 °F 93% 29.98 in 3.0 mi Calm Calm - N/A Rain Rain
10:15 PM 60.8 °F 59.0 °F 94% 29.98 in 2.5 mi Calm Calm - N/A Rain Heavy Rain
10:35 PM 60.8 °F 58.6 °F 93% 29.98 in 3.0 mi Calm Calm - N/A Rain Heavy Rain
10:55 PM 60.8 °F 58.6 °F 93% 29.97 in 3.0 mi East 3.5 mph - N/A Rain Heavy Rain
11:15 PM 60.8 °F 59.0 °F 94% 29.96 in 4.0 mi East 3.5 mph - N/A Rain Rain
11:34 PM 60.8 °F 59.0 °F 94% 29.96 in 4.0 mi Calm Calm - N/A Rain Rain
11:55 PM 61.0 °F 59.4 °F 94% 29.96 in 4.0 mi Calm Calm - N/A Rain Rain